sat.trackr.live / text

‹ back to catalog

KUIPER-00183

NORAD 67138 · 2025-301F

PAYLOAD ACTIVE UNKNOWN

§ Identity

Operator
Country
US
Launch date
2025-12-16
Launch site
AFETR
Launch vehicle
Mass (kg)
RCS (m²)

External: N2YO · Heavens-Above · Gunter

§ Orbital elements

Epoch: 2026-09-20T23:22:49.179648Z

Period
97.30 min
Inclination
51.9006°
Eccentricity
0.0000933
Mean motion
14.79926906 rev/d
Perigee alt
628.9 km
Apogee alt
630.2 km
Semi-major
7,007.7 km
B*
3.5348e-4
RAAN
264.6011°
Arg perigee
50.1423°
Mean anomaly
309.9621°
Rev number
4,306

§ Raw data

KUIPER-001831 67138U 25301F   26263.97418032  .00002474  00000+0  35348-3 0  99912 67138  51.9006 264.6011 0000933  50.1423 309.9621 14.79926906 43064

JSON: /api/v1/satellites/67138 · /tle

For live sub-satellite position, see the globe view (requires WebGL).

§ Visibility from observer

Set your observer location to see the next 7 days of passes ≥ 10°. The values pass through the URL so the page stays shareable.

No JS? Fill the form by hand. The geolocation button needs JavaScript.